STARLINK-1523, 46028

Orbit data source: Space-Track

STARLINK-1523, 46028 is a payload satellite owned by SpaceX/Seattle (US) in LEO that was launched on Fri, 07 Aug 2020 UTC via an FALCON 9 launch vehicle from the Air Force Eastern Test Range (AFETR). Payload-class satellites include a variety of spacecraft equipped with specific instruments for various scientific and technological missions. These include communications satellites like Starlink; space stations such as the ISS; scientific satellites like the Hubble; Earth observation satellites from companies like Planet Labs, Umbra, and HawkEye 360; GPS; miniature CubeSats for education and research; and military/defense satellites.

Loading next visibility...
Identifier
46028, 2020-055B
Orbit
LEO
Country
Flag of USUS
Related business
Manufacturer
SpaceX/Seattle
Mission
Operational Commercial Communications
Bus & Motor
STARLINK, Unknown motor
Mass
260 kg wet, ~248 kg dry
Launch date (UTC)
2020-08-07 (6 years ago)
Launch vehicle
FALCON 9
Launch site
Air Force Eastern Test Range (AFETR)
Object type
Payload
Rocket body
Debris
Shape & HBR
Box + 1 Pan, 10.1 m
Radar Cross Section
13.562 m², Large (>1 m²)

Expand to show TLE details & history
Last TLE update: 12 hours ago

TLE from 12 hours ago
0 STARLINK-1523
1 46028U 20055B   26263.41450833  .00033216  00000-0  88305-3 0  9991
2 46028  53.1575 299.3217 0001357 347.9988  12.0984 15.37966307338752
Epoch: 2026-09-20T09:56Z
TLE epoch observation values (Epoch: 2026-09-20T09:56:53.519Z)
Latitude
Longitude
150.78968°
Altitude
452.12 km
Speed
7.643 km/s
True Right ascension
19h 57m 17s
True Declination
0° 00' 00"
Sunlit
Object was in full shadow at epoch
Visualization orbit readout
Latitude
Unknown
Longitude
Unknown
Altitude
Unknown
Speed
Unknown
Apparent Right ascension
Unknown
Apparent Declination
Unknown
Sunlit
N/A
Visualization observer readout
Local Sidereal Time
15:00:58
Azimuth
Unknown
Elevation
Unknown
Doppler factor
Unknown
Orbital elements
Apogee altitude
453.308 km
Perigee altitude
451.455 km
Semi-major axis
6,830.519 km
Eccentricity
0.00014
Inclination
53.1575°
RAAN
299.3217°
Arg. of periapsis
347.9988°
True anomaly
12.10166°
Mean anomaly
12.0984°
Eccentric anomaly
12.10003°
Mean motion
3.8447 °/min
Orbital period
93.64 mins
BSTAR
0.00088305
Loading maneuver chart data...
Computing Atmospheric mass density...
Loading historical data...
Loading historical data...
Loading historical data...
Loading historical data...
Loading historical data...
Loading historical data...
Loading historical data...

Documentation

Showing up to 5 results
|